Tracking 19795 objects as of 20-Jul-2019
HD Live streaming from Space Station
objects crossing your sky now

SL-14 DEB


SL-14 DEB is no longer on orbit


NORAD ID: 21961
Int'l Code: 1991-086H
Perigee: N/A
Apogee: N/A
Inclination: N/A
Period: N/A
Semi major axis: N/A
RCS: N/A
Launch date: December 18, 1991
Source: Commonwealth of Independent States (former USSR) (CIS)
Launch site: PLESETSK MISSILE AND SPACE COMPLEX (PKMTR)
Decay date: 2011-09-03

Note: This is SATELLITE DEBRIS
aabbcc
Your satellite tracking list
Your tracking list is empty




NASA's NSSDC Master Catalog

Two Line Element Set (TLE):
1 21961U 91086H   11246.53504793  .04729572 -10904-5  44034-2 0  9996
2 21961 082.3765 081.6376 0031695 336.4327 023.5445 16.11013047800392
Source of the keplerian elements: AFSPC